EW9318 Weather Reports


Display with metric or nautical units.
time (UTC)temp
F
wind
direction
speed
MPH
gust
MPH
rain 1hr
in
rain 24hr
in
rain mn
in
humidity
%
barometer
mb
20260905163016 69 39 3.0 9.0 0.00 0.17 0.00 94 1013.8
20260905162516 69 38 4.0 9.0 0.00 0.17 0.00 94 1013.9
20260905162016 69 18 4.0 8.0 0.00 0.18 0.00 94 1013.9
20260905161516 69 16 4.0 9.0 0.00 0.18 0.00 94 1013.8
20260905161016 69 18 4.0 10.0 0.00 0.18 0.00 94 1013.8
20260905160516 69 19 6.0 10.0 0.00 0.19 0.00 94 1013.8
20260905160016 69 40 4.0 9.0 0.00 0.19 0.00 94 1013.7
20260905155516 69 28 5.0 9.0 0.00 0.19 0.00 94 1013.7
20260905155017 69 48 3.0 6.0 0.00 0.20 0.00 94 1013.5
20260905154536 69 34 3.0 9.0 0.00 0.20 0.00 94 1013.5
20260905154016 69 46 4.0 9.0 0.00 0.20 0.00 94 1013.5
20260905153516 69 56 3.0 10.0 0.00 0.21 0.00 94 1013.6
20260905153016 69 58 4.0 10.0 0.00 0.21 0.00 94 1013.6
20260905152515 69 63 5.0 9.0 0.00 0.21 0.00 94 1013.6
20260905152016 69 28 3.0 8.0 0.00 0.22 0.00 94 1013.5
20260905151516 69 47 3.0 7.0 0.00 0.22 0.00 94 1013.5
20260905151015 69 57 2.0 8.0 0.00 0.23 0.00 94 1013.5
20260905150516 69 60 4.0 8.0 0.00 0.23 0.00 94 1013.5
20260905150036 69 39 3.0 7.0 0.00 0.23 0.00 94 1013.6
20260905145536 69 53 3.0 9.0 0.00 0.24 0.00 94 1013.5
20260905145015 69 29 5.0 9.0 0.00 0.24 0.00 94 1013.3
20260905144515 70 39 4.0 8.0 0.00 0.24 0.00 94 1013.2
20260905144015 70 15 4.0 10.0 0.00 0.25 0.00 94 1013.1
20260905143516 70 10 6.0 10.0 0.00 0.25 0.00 94 1013.2
20260905143016 70 15 5.0 10.0 0.00 0.25 0.00 93 1013.2
20260905142516 70 6 5.0 10.0 0.00 0.25 0.00 93 1013.2
20260905142037 70 12 6.0 10.0 0.00 0.26 0.00 94 1013.2
20260905141515 71 17 5.0 10.0 0.00 0.26 0.00 94 1013.2
20260905141015 71 73 2.0 7.0 0.00 0.26 0.00 94 1013.1
20260905140536 71 101 3.0 7.0 0.00 0.27 0.00 95 1013.1
20260905140015 71 78 2.0 7.0 0.00 0.27 0.00 95 1013.1
20260905135516 70 78 3.0 6.0 0.00 0.27 0.00 95 1013.0
20260905135017 70 85 2.0 6.0 0.00 0.28 0.00 95 1012.9
20260905134515 70 70 2.0 4.0 0.00 0.28 0.00 95 1013.0
20260905134016 70 90 1.0 4.0 0.00 0.28 0.00 95 1013.0
20260905133515 70 78 2.0 7.0 0.00 0.29 0.00 96 1013.0
20260905133117 70 83 3.0 7.0 0.00 0.29 0.00 96 1012.9
20260905132515 70 81 2.0 7.0 0.00 0.29 0.00 96 1012.9
20260905132035 70 94 2.0 6.0 0.00 0.29 0.00 96 1012.8
20260905131515 70 65 2.0 6.0 0.00 0.30 0.00 96 1012.8
20260905131015 70 69 2.0 5.0 0.00 0.30 0.00 96 1012.7
20260905130515 70 58 2.0 4.0 0.00 0.30 0.00 96 1012.8
20260905130015 69 90 1.0 4.0 0.00 0.31 0.00 96 1012.8
20260905125515 69 89 1.0 4.0 0.00 0.31 0.00 96 1012.8
20260905125015 69 84 1.0 3.0 0.00 0.31 0.00 96 1012.7
20260905124515 69 107 0.0 4.0 0.00 0.32 0.00 96 1012.8
20260905124035 69 125 1.0 6.0 0.00 0.32 0.00 96 1012.6
20260905123515 69 119 3.0 6.0 0.00 0.33 0.00 96 1012.5
20260905123036 69 105 4.0 6.0 0.00 0.33 0.00 96 1012.5
20260905122538 68 101 2.0 6.0 0.00 0.33 0.00 96 1012.5
20260905122015 68 84 1.0 4.0 0.00 0.34 0.00 96 1012.5
20260905121515 68 74 1.0 3.0 0.00 0.34 0.00 96 1012.6
20260905121015 68 70 2.0 3.0 0.00 0.34 0.00 96 1012.6
20260905120516 68 70 2.0 3.0 0.00 0.35 0.00 96 1012.6
20260905120057 68 79 1.0 3.0 0.00 0.35 0.00 96 1012.5
20260905115515 68 81 1.0 3.0 0.00 0.35 0.00 96 1012.5
20260905115035 68 94 0.0 4.0 0.00 0.36 0.00 96 1012.4
20260905114536 68 95 2.0 4.0 0.00 0.36 0.00 96 1012.3
20260905114015 68 102 2.0 4.0 0.00 0.36 0.00 96 1012.3
20260905113536 68 102 1.0 3.0 0.00 0.37 0.00 96 1012.3
20260905113057 68 84 1.0 5.0 0.00 0.37 0.00 96 1012.2
20260905112515 68 73 2.0 5.0 0.00 0.37 0.00 96 1012.1
20260905112015 68 66 2.0 4.0 0.00 0.37 0.00 96 1012.1
20260905111517 68 69 2.0 5.0 0.00 0.37 0.00 96 1012.1
20260905111015 68 64 2.0 5.0 0.00 0.37 0.00 96 1012.0
20260905110516 68 69 2.0 7.0 0.00 0.37 0.00 96 1012.1
20260905110015 67 58 3.0 7.0 0.00 0.37 0.00 96 1012.0
20260905105515 67 66 4.0 7.0 0.00 0.37 0.00 96 1012.1
20260905105015 67 71 3.0 7.0 0.00 0.37 0.00 96 1012.1
20260905104515 67 65 3.0 7.0 0.00 0.37 0.00 96 1012.2
20260905104015 67 45 3.0 5.0 0.00 0.37 0.00 96 1012.2
20260905103555 67 45 2.0 5.0 0.00 0.37 0.00 95 1011.9
20260905103015 67 69 1.0 4.0 0.00 0.37 0.00 96 1011.9
20260905102535 67 56 0.0 4.0 0.00 0.37 0.00 96 1011.9
20260905102015 66 51 1.0 4.0 0.00 0.37 0.00 96 1011.9
20260905101515 66 48 2.0 6.0 0.00 0.37 0.00 95 1011.9
20260905101015 66 36 2.0 6.0 0.00 0.37 0.00 95 1011.9
20260905100515 66 35 0.0 3.0 0.00 0.37 0.00 95 1011.8
20260905100015 66 0.0 0.0 0.00 0.37 0.00 95 1011.7
20260905095515 66 0.0 0.0 0.00 0.37 0.00 95 1011.7
20260905095035 66 0.0 0.0 0.00 0.37 0.00 95 1011.7
20260905094535 66 0.0 0.0 0.00 0.37 0.00 95 1011.8
20260905094015 66 0.0 0.0 0.00 0.37 0.00 95 1011.8
20260905093515 66 0.0 0.0 0.00 0.37 0.00 95 1011.7
20260905093036 66 0.0 0.0 0.00 0.37 0.00 94 1011.7
20260905092516 66 0.0 0.0 0.00 0.37 0.00 94 1011.8
20260905092017 66 0.0 0.0 0.00 0.37 0.00 94 1011.8
20260905091517 66 0.0 0.0 0.00 0.37 0.00 94 1011.8
20260905091017 66 0.0 1.0 0.00 0.37 0.00 94 1011.7
20260905090517 67 51 0.0 3.0 0.00 0.37 0.00 94 1011.6
20260905090017 67 56 1.0 3.0 0.00 0.37 0.00 94 1011.6
20260905085517 67 78 1.0 2.0 0.00 0.37 0.00 94 1011.7
20260905085018 67 55 1.0 4.0 0.00 0.37 0.00 94 1011.7
20260905084517 67 26 2.0 4.0 0.00 0.37 0.00 94 1011.7
20260905084017 67 0.0 0.0 0.00 0.37 0.00 94 1011.6
20260905083517 67 0.0 2.0 0.00 0.37 0.00 94 1011.7
20260905083037 67 130 0.0 2.0 0.00 0.37 0.00 94 1011.8
20260905082517 67 52 0.0 2.0 0.00 0.37 0.00 94 1011.6
20260905082017 67 49 0.0 2.0 0.00 0.37 0.00 94 1011.5
20260905081537 68 0.0 3.0 0.00 0.37 0.00 94 1011.4
20260905081038 68 59 1.0 3.0 0.00 0.37 0.00 94 1011.2
20260905080518 68 81 1.0 3.0 0.00 0.37 0.00 94 1011.2
20260905080017 68 88 0.0 4.0 0.00 0.37 0.00 94 1011.2
20260905075518 68 71 2.0 5.0 0.00 0.37 0.00 94 1011.1
20260905075017 68 56 3.0 7.0 0.00 0.37 0.00 94 1011.1
20260905074515 68 66 3.0 7.0 0.00 0.37 0.00 94 1011.2
20260905074017 68 48 3.0 6.0 0.00 0.37 0.00 94 1011.0
20260905073517 69 45 2.0 6.0 0.00 0.37 0.00 93 1011.0
20260905073057 69 55 3.0 6.0 0.00 0.37 0.00 93 1010.8
20260905072538 69 68 3.0 6.0 0.00 0.37 0.00 93 1010.8
20260905072017 69 87 1.0 3.0 0.00 0.37 0.00 93 1010.5
20260905071518 69 79 1.0 4.0 0.00 0.37 0.00 93 1010.3
20260905071017 69 39 2.0 5.0 0.00 0.37 0.00 93 1010.4
20260905070518 69 30 2.0 6.0 0.00 0.37 0.00 93 1010.6
20260905070017 70 19 4.0 6.0 0.00 0.37 0.00 93 1010.7
20260905065517 70 63 2.0 4.0 0.00 0.37 0.00 92 1010.6
20260905065017 70 0.0 1.0 0.00 0.37 0.00 92 1010.8
20260905064517 70 233 0.0 7.0 0.00 0.37 0.00 92 1011.1
20260905064017 70 247 1.0 7.0 0.00 0.37 0.00 93 1011.3
20260905063537 70 219 3.0 8.0 0.00 0.37 0.00 92 1011.6
20260905063017 70 173 3.0 8.0 0.00 0.37 0.00 92 1011.6
20260905062536 70 230 3.0 8.0 0.00 0.37 0.00 92 1012.1
20260905062018 70 219 4.0 8.0 0.00 0.37 0.00 92 1012.2
20260905061516 70 217 4.0 9.0 0.00 0.37 0.00 91 1012.1
20260905061017 70 211 4.0 9.0 0.00 0.37 0.00 91 1011.8
20260905060517 70 134 2.0 6.0 0.00 0.37 0.00 90 1011.2
20260905060017 70 97 3.0 8.0 0.00 0.37 0.00 90 1010.9
20260905055536 70 113 3.0 9.0 0.00 0.37 0.00 90 1011.3
20260905055017 70 136 4.0 9.0 0.00 0.37 0.00 90 1011.6
20260905054517 70 125 2.0 5.0 0.00 0.37 0.00 89 1011.9
20260905054017 70 130 2.0 5.0 0.00 0.37 0.00 89 1012.0
20260905053517 70 161 1.0 8.0 0.00 0.37 0.00 89 1012.3
20260905053036 70 157 4.0 8.0 0.00 0.37 0.00 88 1012.2
20260905052516 71 156 2.0 6.0 0.00 0.37 0.00 88 1011.8
20260905052016 71 113 2.0 7.0 0.00 0.37 0.00 88 1011.8
20260905051518 71 93 3.0 7.0 0.00 0.37 0.00 88 1011.8
20260905051017 71 98 3.0 6.0 0.00 0.37 0.00 88 1011.9
20260905050518 71 127 3.0 6.0 0.00 0.37 0.00 88 1011.9
20260905050016 71 115 2.0 6.0 0.00 0.37 0.00 88 1011.8
20260905045518 71 96 3.0 6.0 0.00 0.37 0.00 89 1011.8
20260905045058 71 57 3.0 5.0 0.00 0.37 0.00 90 1011.7
20260905044517 71 298 1.0 11.0 0.00 0.37 0.00 90 1012.0
20260905044038 71 123 5.0 14.0 0.00 0.37 0.00 91 1012.0
20260905043516 71 119 9.0 15.0 0.00 0.37 0.00 92 1011.7
20260905043016 71 153 8.0 15.0 0.00 0.37 0.00 92 1011.8
20260905042516 71 211 5.0 10.0 0.00 0.37 0.00 93 1012.4
20260905042017 71 154 2.0 5.0 0.00 0.37 0.00 93 1012.5
20260905041536 71 147 3.0 5.0 0.00 0.37 0.00 92 1012.2
20260905041016 71 128 2.0 5.0 0.00 0.37 0.00 92 1012.1
20260905040516 71 84 1.0 5.0 0.00 0.37 0.00 92 1011.9
20260905040016 71 71 2.0 5.0 0.00 0.37 0.37 92 1011.9
20260905035517 71 84 2.0 7.0 0.00 0.37 0.37 92 1012.0
20260905035018 71 63 3.0 7.0 0.00 0.37 0.37 92 1012.0
20260905034517 71 84 3.0 7.0 0.00 0.37 0.37 92 1012.0
20260905034017 71 88 3.0 7.0 0.00 0.37 0.37 92 1012.1
20260905033517 71 114 3.0 9.0 0.00 0.37 0.37 92 1012.2
20260905033018 71 102 6.0 9.0 0.00 0.37 0.37 93 1012.3
20260905032517 71 99 2.0 6.0 0.00 0.37 0.37 93 1012.5
20260905032017 71 17 1.0 7.0 0.00 0.37 0.37 93 1012.5
20260905031517 71 89 3.0 9.0 0.00 0.37 0.37 93 1012.4
20260905031017 71 94 5.0 9.0 0.00 0.37 0.37 93 1012.5
20260905030517 71 21 3.0 5.0 0.00 0.37 0.37 93 1012.7
20260905030017 71 57 1.0 4.0 0.00 0.37 0.37 92 1012.8
20260905025518 71 104 2.0 4.0 0.00 0.37 0.37 92 1012.8
20260905025017 71 54 2.0 3.0 0.00 0.37 0.37 92 1012.9
20260905024517 72 80 1.0 3.0 0.00 0.37 0.37 93 1012.9
20260905024017 72 87 1.0 4.0 0.00 0.37 0.37 93 1012.9
20260905023517 72 67 1.0 4.0 0.00 0.37 0.37 93 1013.0
20260905023037 72 84 1.0 4.0 0.00 0.37 0.37 92 1012.9
20260905022517 72 62 1.0 4.0 0.00 0.37 0.37 92 1012.9
20260905022016 72 66 2.0 4.0 0.00 0.37 0.37 92 1012.8
20260905021517 72 78 2.0 5.0 0.00 0.37 0.37 92 1012.8
20260905021017 72 77 2.0 5.0 0.00 0.37 0.37 92 1012.7
20260905020516 72 68 1.0 4.0 0.00 0.37 0.37 92 1012.7
20260905020018 72 66 1.0 7.0 0.00 0.37 0.37 92 1012.6
20260905015516 72 72 3.0 7.0 0.00 0.37 0.37 91 1012.6
20260905015018 72 81 3.0 5.0 0.00 0.37 0.37 91 1012.5
20260905014518 72 68 2.0 5.0 0.00 0.37 0.37 91 1012.6
20260905014018 72 78 2.0 4.0 0.00 0.37 0.37 91 1012.5
20260905013518 72 84 2.0 4.0 0.00 0.37 0.37 91 1012.5
20260905013038 73 87 2.0 4.0 0.00 0.37 0.37 91 1012.5
20260905012537 73 77 2.0 7.0 0.00 0.37 0.37 91 1012.6
20260905012017 73 67 4.0 7.0 0.00 0.37 0.37 90 1012.5
20260905011517 73 71 2.0 6.0 0.00 0.37 0.37 90 1012.6
20260905011018 73 67 3.0 6.0 0.00 0.37 0.37 90 1012.5
20260905010517 73 66 3.0 6.0 0.00 0.37 0.37 90 1012.3
20260905010036 73 57 3.0 6.0 0.00 0.37 0.37 90 1012.3
20260905005518 73 63 3.0 5.0 0.00 0.37 0.37 90 1012.2
20260905005016 73 75 3.0 5.0 0.00 0.37 0.37 90 1012.1
20260905004518 73 69 2.0 5.0 0.00 0.37 0.37 89 1012.1
20260905004016 73 62 3.0 7.0 0.00 0.37 0.37 89 1012.2
20260905003518 73 84 3.0 7.0 0.00 0.37 0.37 89 1012.1
20260905003016 74 81 2.0 5.0 0.00 0.37 0.37 89 1012.2
20260905002516 74 74 3.0 5.0 0.00 0.37 0.37 89 1012.3
20260905002016 74 67 1.0 5.0 0.00 0.37 0.37 88 1012.2
20260905001517 74 63 2.0 5.0 0.00 0.37 0.37 88 1012.3
20260905001017 74 70 3.0 6.0 0.00 0.37 0.37 87 1012.3
20260905000517 75 73 3.0 6.0 0.00 0.37 0.37 87 1012.3
20260905000016 75 76 2.0 4.0 0.00 0.37 0.37 86 1012.2
20260904235536 75 78 2.0 4.0 0.00 0.37 0.37 86 1012.3
20260904235016 76 84 3.0 7.0 0.00 0.37 0.37 85 1012.1
20260904234516 76 92 3.0 7.0 0.00 0.37 0.37 85 1012.1
20260904234016 76 99 5.0 7.0 0.00 0.37 0.37 84 1012.1
20260904233538 77 99 4.0 7.0 0.00 0.37 0.37 84 1012.2
20260904233016 77 95 4.0 7.0 0.00 0.37 0.37 84 1012.2
20260904232516 77 87 3.0 7.0 0.00 0.37 0.37 83 1012.2
20260904232016 77 93 4.0 7.0 0.00 0.37 0.37 83 1012.2
20260904231516 77 82 2.0 4.0 0.00 0.37 0.37 83 1012.3
20260904231016 77 77 2.0 4.0 0.00 0.37 0.37 83 1012.3
20260904230537 77 84 2.0 5.0 0.00 0.37 0.37 83 1012.2
20260904230037 77 68 2.0 7.0 0.00 0.37 0.37 83 1012.3
20260904225516 77 74 3.0 7.0 0.00 0.37 0.37 82 1012.2
20260904225036 77 92 3.0 6.0 0.00 0.37 0.37 82 1012.2
20260904224536 77 88 2.0 6.0 0.00 0.37 0.37 82 1012.1
20260904224018 77 64 1.0 6.0 0.00 0.37 0.37 83 1012.1
20260904223516 77 59 3.0 8.0 0.00 0.37 0.37 82 1012.1
20260904223016 77 71 4.0 8.0 0.00 0.37 0.37 81 1012.0
20260904222517 78 45 4.0 9.0 0.00 0.37 0.37 82 1012.0
20260904222017 77 41 4.0 9.0 0.00 0.37 0.37 83 1011.9
20260904221516 77 43 5.0 7.0 0.00 0.37 0.37 82 1011.8
20260904221018 77 39 2.0 6.0 0.00 0.37 0.37 83 1011.8
20260904220518 77 39 3.0 6.0 0.00 0.37 0.37 82 1011.9
20260904220016 78 42 3.0 6.0 0.00 0.37 0.37 80 1011.8
20260904215516 78 69 3.0 7.0 0.00 0.37 0.37 79 1011.7
20260904215038 79 47 4.0 7.0 0.00 0.37 0.37 80 1011.6
20260904214516 79 37 3.0 6.0 0.00 0.37 0.37 80 1011.6
20260904214016 79 50 2.0 6.0 0.01 0.38 0.37 80 1011.5
20260904213516 78 91 3.0 8.0 0.01 0.38 0.37 80 1011.6
20260904213016 78 15 4.0 8.0 0.01 0.38 0.37 80 1011.7
20260904212516 78 35 4.0 8.0 0.01 0.38 0.37 80 1011.6
20260904212057 78 41 4.0 6.0 0.01 0.38 0.37 81 1011.5
20260904211516 78 33 4.0 7.0 0.01 0.38 0.37 82 1011.6
20260904211036 78 27 4.0 7.0 0.02 0.38 0.37 82 1011.6
20260904210517 78 38 3.0 5.0 0.02 0.38 0.37 82 1011.7
20260904210016 78 24 2.0 5.0 0.02 0.39 0.37 81 1011.7
20260904205516 78 66 1.0 4.0 0.02 0.39 0.37 80 1011.8
20260904205016 78 73 2.0 4.0 0.02 0.39 0.37 80 1011.6
20260904204516 78 59 1.0 3.0 0.02 0.39 0.37 80 1011.5
20260904204016 78 21 0.0 2.0 0.02 0.38 0.36 82 1011.7
20260904203516 78 16 0.0 5.0 0.02 0.38 0.36 81 1011.7
20260904203017 77 345 2.0 5.0 0.02 0.38 0.36 82 1011.9
20260904202517 77 351 2.0 5.0 0.02 0.38 0.36 82 1012.0
20260904202016 77 320 1.0 3.0 0.03 0.38 0.36 82 1012.1
20260904201517 76 245 0.0 3.0 0.03 0.38 0.36 83 1012.1
20260904201016 76 228 1.0 3.0 0.02 0.38 0.35 83 1012.2
20260904200516 76 241 1.0 3.0 0.03 0.38 0.35 84 1012.3
20260904200016 75 289 0.0 4.0 0.03 0.38 0.35 85 1012.1
20260904195517 75 153 1.0 4.0 0.03 0.38 0.35 86 1012.0
20260904195016 75 107 1.0 6.0 0.03 0.38 0.35 87 1012.1
20260904194517 74 93 2.0 6.0 0.04 0.38 0.35 87 1012.0
20260904194037 74 130 2.0 6.0 0.03 0.37 0.34 87 1012.0
20260904193517 74 102 3.0 6.0 0.04 0.37 0.34 88 1011.9
20260904193016 74 106 2.0 7.0 0.04 0.37 0.34 88 1012.0
20260904192516 74 128 2.0 7.0 0.04 0.37 0.34 88 1012.1
20260904192016 73 148 1.0 6.0 0.04 0.37 0.33 89 1012.3
20260904191537 73 103 2.0 9.0 0.04 0.37 0.33 90 1012.3
20260904191017 73 111 3.0 9.0 0.04 0.37 0.33 90 1012.2
20260904190538 72 119 4.0 8.0 0.04 0.36 0.32 90 1012.2
20260904190016 72 97 3.0 7.0 0.04 0.36 0.32 91 1012.3
20260904185516 72 83 2.0 8.0 0.04 0.36 0.32 91 1012.7
20260904185016 72 117 5.0 8.0 0.05 0.36 0.32 90 1012.3
20260904184516 72 141 3.0 8.0 0.04 0.36 0.31 91 1012.5
20260904184016 72 171 3.0 8.0 0.05 0.36 0.31 92 1012.6
20260904183516 71 197 2.0 4.0 0.04 0.35 0.30 92 1012.6
20260904183016 71 156 0.0 4.0 0.05 0.35 0.30 93 1012.9
20260904182516 71 188 1.0 4.0 0.05 0.35 0.30 93 1013.0
20260904182016 70 212 1.0 4.0 0.05 0.34 0.28 93 1012.7
20260904181536 70 182 1.0 4.0 0.05 0.34 0.28 94 1012.6
20260904181017 70 157 1.0 4.0 0.05 0.34 0.28 94 1012.4
20260904180537 70 235 0.0 9.0 0.05 0.33 0.28 94 1012.4
20260904180016 70 202 3.0 9.0 0.05 0.33 0.28 94 1012.4
20260904175516 70 200 4.0 10.0 0.06 0.33 0.28 94 1012.2
20260904175036 70 143 6.0 10.0 0.05 0.32 0.27 94 1012.0
20260904174517 69 163 3.0 7.0 0.05 0.32 0.27 94 1012.4
20260904174016 69 72 2.0 6.0 0.05 0.31 0.26 94 1013.0
20260904173516 69 31 3.0 9.0 0.05 0.31 0.26 95 1013.3
20260904173016 69 242 3.0 9.0 0.05 0.30 0.25 95 1013.4
20260904172517 68 225 3.0 9.0 0.05 0.30 0.25 95 1012.9
20260904172016 68 262 2.0 9.0 0.05 0.29 0.24 95 1012.8
20260904171516 68 238 3.0 9.0 0.05 0.29 0.24 95 1012.6
20260904171015 67 158 3.0 10.0 0.05 0.29 0.24 94 1011.8
20260904170516 67 232 4.0 13.0 0.05 0.28 0.23 95 1011.8
20260904170015 67 194 6.0 25.0 0.05 0.28 0.23 95 1011.3
20260904165537 67 173 10.0 25.0 0.04 0.27 0.22 95 1010.1
20260904165016 67 167 12.0 19.0 0.05 0.27 0.22 95 1010.3
20260904164515 67 164 10.0 18.0 0.05 0.27 0.22 95 1010.9
20260904164016 67 165 10.0 17.0 0.04 0.26 0.21 95 1011.5
20260904163517 67 163 11.0 17.0 0.05 0.26 0.21 95 1011.8